Location: Axtheid
(49.6213°N, 11.8205°E)
Time: 04:10:37
(UTC+00:00)

ISS - Pass Details

Date: 24 January 2021
Orbit: 417 x 422 km, 51.6° (Epoch: 27 February)

Event Time Altitude Azimuth Distance (km) Brightness Sun altitude
Rises 17:39:21 0° 254° (WSW) 2,372 1.8 -16.7°
Reaches altitude 10° 17:41:27 10° 255° (WSW) 1,510 0.4 -17.0°
Maximum altitude 17:44:51 83° 345° (NNW) 432 -3.8 -17.5°
Enters shadow 17:45:33 53° 65° (ENE) 527 -3.7 -17.7°
